NK7I Weather Reports


time (UTC)temp
C
wind
direction
speed
KPH
gust
KPH
rain 1hr
cm
rain 24hr
cm
rain mn
cm
humidity
%
barometer
mb
20260506215122 22 225 6.4 16.1 0.00 0.00 0.00 44 1011.0
20260506214622 22 228 9.7 25.7 0.00 0.00 0.00 41 1011.1
20260506214122 22 241 6.4 14.5 0.00 0.00 0.00 42 1011.3
20260506213622 22 237 9.7 20.9 0.00 0.00 0.00 42 1009.5
20260506213122 22 260 8.0 17.7 0.00 0.00 0.00 41 1009.5
20260506212622 22 238 9.7 20.9 0.00 0.00 0.00 42 1009.6
20260506212123 22 238 9.7 19.3 0.00 0.00 0.00 40 1009.6
20260506211622 22 243 9.7 19.3 0.00 0.00 0.00 40 1009.6
20260506211122 22 247 11.3 25.7 0.00 0.00 0.00 40 1009.5
20260506210622 22 253 9.7 19.3 0.00 0.00 0.00 41 1009.6
20260506210122 22 247 8.0 20.9 0.00 0.00 0.00 41 1009.6
20260506205622 22 254 6.4 17.7 0.00 0.00 0.00 43 1009.6
20260506183122 18 218 4.8 11.3 0.00 0.00 0.00 47 1012.1
20260506182622 17 218 3.2 9.7 0.00 0.00 0.00 44 1012.2
20260506182123 17 202 3.2 12.9 0.00 0.00 0.00 48 1012.2
20260506181622 16 241 3.2 8.0 0.00 0.00 0.00 47 1012.3
20260506181122 16 297 1.6 6.4 0.00 0.00 0.00 48 1012.2
20260506180622 16 291 1.6 6.4 0.00 0.00 0.00 48 1012.4
20260506180122 15 291 0.0 1.6 0.00 0.00 0.00 49 1012.5
20260506175622 15 291 0.0 0.0 0.00 0.00 0.00 47 1012.6
20260506175123 15 291 0.0 1.6 0.00 0.00 0.00 47 1012.6
20260506174622 15 291 0.0 3.2 0.00 0.00 0.00 45 1012.7
20260506174122 15 291 0.0 3.2 0.00 0.00 0.00 44 1012.8
20260506173622 15 323 1.6 4.8 0.00 0.00 0.00 48 1012.9
20260506173122 15 347 1.6 4.8 0.00 0.00 0.00 48 1013.1
20260506172622 15 345 1.6 6.4 0.00 0.00 0.00 45 1013.1
20260506172123 15 345 1.6 3.2 0.00 0.00 0.00 45 1013.2
20260506171622 15 345 1.6 4.8 0.00 0.00 0.00 49 1013.2
20260506171122 15 345 1.6 6.4 0.00 0.00 0.00 55 1013.3
20260506170622 15 345 1.6 6.4 0.00 0.00 0.00 49 1013.3
20260506170123 15 345 0.0 3.2 0.00 0.00 0.00 48 1013.4
20260506165622 14 345 1.6 4.8 0.00 0.00 0.00 47 1013.4
20260506165122 15 345 0.0 3.2 0.00 0.00 0.00 51 1013.6
20260506164622 14 344 1.6 4.8 0.00 0.00 0.00 52 1013.6
20260506164122 14 346 1.6 4.8 0.00 0.00 0.00 50 1013.7
20260506163622 13 349 3.2 6.4 0.00 0.00 0.00 51 1013.8
20260506163122 13 345 3.2 6.4 0.00 0.00 0.00 49 1013.8
20260506162622 13 337 1.6 6.4 0.00 0.00 0.00 51 1013.9
20260506162122 13 333 0.0 4.8 0.00 0.00 0.00 52 1013.8
20260506161622 12 333 1.6 3.2 0.00 0.00 0.00 56 1013.9
20260506161122 12 335 1.6 3.2 0.00 0.00 0.00 55 1013.9
20260506160622 12 337 0.0 3.2 0.00 0.00 0.00 57 1013.9
20260506160122 12 342 1.6 4.8 0.00 0.00 0.00 53 1014.0
20260506155622 12 12 1.6 4.8 0.00 0.00 0.00 54 1014.1
20260506155122 12 6 1.6 6.4 0.00 0.00 0.00 58 1014.2
20260506154622 12 241 0.0 3.2 0.00 0.00 0.00 60 1014.2
20260506154122 11 241 1.6 4.8 0.00 0.00 0.00 56 1014.3
20260506153623 11 241 1.6 3.2 0.00 0.00 0.00 59 1014.3
20260506153122 11 241 1.6 4.8 0.00 0.00 0.00 58 1014.3
20260506152622 11 240 0.0 4.8 0.00 0.00 0.00 59 1014.3
20260506152123 11 240 1.6 4.8 0.00 0.00 0.00 58 1014.4
20260506151622 10 239 0.0 3.2 0.00 0.00 0.00 59 1014.4
20260506151122 10 239 0.0 4.8 0.00 0.00 0.00 65 1014.6
20260506150622 9 239 0.0 3.2 0.00 0.00 0.00 64 1014.5
20260506150122 8 239 1.6 3.2 0.00 0.00 0.00 63 1014.5
20260506145622 8 239 0.0 3.2 0.00 0.00 0.00 66 1014.6
20260506145122 8 239 0.0 3.2 0.00 0.00 0.00 68 1014.7
20260506144622 7 239 0.0 3.2 0.00 0.00 0.00 68 1014.7
20260506144122 7 239 0.0 3.2 0.00 0.00 0.00 68 1014.7
20260506143622 7 238 0.0 3.2 0.00 0.00 0.00 71 1014.6
20260506143122 6 237 0.0 0.0 0.00 0.00 0.00 70 1014.6
20260506142622 6 237 0.0 0.0 0.00 0.00 0.00 69 1014.6
20260506142122 6 237 0.0 3.2 0.00 0.00 0.00 71 1014.6
20260506141622 5 237 0.0 0.0 0.00 0.00 0.00 75 1014.6
20260506141122 5 237 0.0 0.0 0.00 0.00 0.00 77 1014.6
20260506140622 5 237 0.0 0.0 0.00 0.00 0.00 78 1014.7
20260506140122 5 237 0.0 0.0 0.00 0.00 0.00 79 1014.6
20260506135622 4 237 0.0 0.0 0.00 0.00 0.00 79 1014.6
20260506135122 4 237 0.0 0.0 0.00 0.00 0.00 78 1014.6
20260506134622 4 237 0.0 0.0 0.00 0.00 0.00 79 1014.5
20260506134122 4 237 0.0 0.0 0.00 0.00 0.00 81 1014.5
20260506133623 4 237 0.0 0.0 0.00 0.00 0.00 82 1014.6
20260506133122 4 237 0.0 0.0 0.00 0.00 0.00 83 1014.5
20260506132622 4 237 0.0 0.0 0.00 0.00 0.00 83 1014.4
20260506132122 4 237 0.0 0.0 0.00 0.00 0.00 83 1014.3
20260506131622 4 237 0.0 0.0 0.00 0.00 0.00 82 1014.4
20260506131122 4 237 0.0 0.0 0.00 0.00 0.00 81 1014.4
20260506130623 3 237 0.0 0.0 0.00 0.00 0.00 82 1014.4
20260506130123 4 237 0.0 0.0 0.00 0.00 0.00 82 1014.4
20260506125622 4 237 0.0 0.0 0.00 0.00 0.00 81 1014.3
20260506125122 4 237 0.0 0.0 0.00 0.00 0.00 81 1014.2
20260506124622 4 237 0.0 0.0 0.00 0.00 0.00 80 1014.2
20260506124122 4 237 0.0 0.0 0.00 0.00 0.00 81 1014.2
20260506123622 4 237 0.0 0.0 0.00 0.00 0.00 80 1014.2
20260506123122 4 237 0.0 0.0 0.00 0.00 0.00 80 1014.1
20260506122622 4 237 0.0 0.0 0.00 0.00 0.00 80 1014.1
20260506122122 4 237 0.0 0.0 0.00 0.00 0.00 80 1014.0
20260506121623 4 237 0.0 0.0 0.00 0.00 0.00 80 1014.1
20260506121122 4 237 0.0 0.0 0.00 0.00 0.00 80 1014.1
20260506120622 4 237 0.0 0.0 0.00 0.00 0.00 79 1014.1
20260506120122 4 237 0.0 0.0 0.00 0.00 0.00 79 1014.1
20260506115622 5 237 0.0 0.0 0.00 0.00 0.00 79 1014.0
20260506115122 5 237 0.0 0.0 0.00 0.00 0.00 79 1014.0
20260506114622 5 237 0.0 0.0 0.00 0.00 0.00 80 1014.0
20260506114122 5 237 0.0 0.0 0.00 0.00 0.00 80 1014.0
20260506113622 5 237 0.0 0.0 0.00 0.00 0.00 80 1014.0
20260506113122 5 237 0.0 0.0 0.00 0.00 0.00 79 1014.0
20260506112622 5 237 0.0 0.0 0.00 0.00 0.00 79 1014.0
20260506112122 5 237 0.0 0.0 0.00 0.00 0.00 78 1014.0
20260506111622 5 237 0.0 0.0 0.00 0.00 0.00 77 1013.9
20260506111122 5 237 0.0 0.0 0.00 0.00 0.00 76 1013.9
20260506110622 5 237 0.0 0.0 0.00 0.00 0.00 76 1014.0
20260506110122 5 237 0.0 0.0 0.00 0.00 0.00 74 1014.0
20260506105622 5 237 0.0 0.0 0.00 0.00 0.00 77 1014.0
20260506105123 5 237 0.0 0.0 0.00 0.00 0.00 73 1013.9
20260506104622 5 237 0.0 0.0 0.00 0.00 0.00 75 1013.9
20260506104122 5 237 0.0 0.0 0.00 0.00 0.00 76 1013.9
20260506103623 5 237 0.0 0.0 0.00 0.00 0.00 77 1013.9
20260506103123 5 237 0.0 0.0 0.00 0.00 0.00 77 1013.9
20260506102623 5 237 0.0 0.0 0.00 0.00 0.00 78 1013.8
20260506102123 5 237 0.0 0.0 0.00 0.00 0.00 80 1013.7
20260506101623 5 237 0.0 0.0 0.00 0.00 0.00 81 1013.7
20260506101123 5 237 0.0 0.0 0.00 0.00 0.00 81 1013.7
20260506100623 5 237 0.0 0.0 0.00 0.00 0.00 80 1013.6
20260506100123 5 237 0.0 0.0 0.00 0.00 0.00 79 1013.5
20260506095624 5 237 0.0 0.0 0.00 0.00 0.00 79 1013.5
20260506095123 5 237 0.0 0.0 0.00 0.00 0.00 78 1013.4
20260506094623 6 237 0.0 0.0 0.00 0.00 0.00 78 1013.3
20260506094123 6 237 0.0 0.0 0.00 0.00 0.00 78 1013.4
20260506093623 6 237 0.0 0.0 0.00 0.00 0.00 77 1013.3
20260506093123 6 237 0.0 1.6 0.00 0.00 0.00 76 1013.4
20260506092622 6 237 0.0 1.6 0.00 0.00 0.00 76 1013.4
20260506092123 6 237 0.0 3.2 0.00 0.00 0.00 75 1013.5
20260506091623 6 237 0.0 0.0 0.00 0.00 0.00 74 1013.5
20260506091123 6 237 0.0 0.0 0.00 0.00 0.00 74 1013.4
20260506090623 7 237 0.0 0.0 0.00 0.00 0.00 73 1013.4
20260506090123 7 237 0.0 0.0 0.00 0.00 0.00 72 1013.4
20260506085623 7 237 0.0 0.0 0.00 0.00 0.00 71 1013.3
20260506085123 7 237 0.0 0.0 0.00 0.00 0.00 71 1013.3
20260506084623 7 237 0.0 0.0 0.00 0.00 0.00 69 1013.2
20260506084124 8 237 0.0 0.0 0.00 0.00 0.00 68 1013.2
20260506083624 8 237 0.0 0.0 0.00 0.00 0.00 67 1013.2
20260506083123 8 237 1.6 3.2 0.00 0.00 0.00 68 1013.2
20260506082623 8 237 3.2 4.8 0.00 0.00 0.00 65 1013.2
20260506082123 9 237 0.0 3.2 0.00 0.00 0.00 63 1013.2
20260506081623 9 237 0.0 0.0 0.00 0.00 0.00 57 1013.2
20260506081123 9 237 0.0 0.0 0.00 0.00 0.00 55 1013.1
20260506080624 9 237 0.0 0.0 0.00 0.00 0.00 55 1013.1
20260506080123 9 237 0.0 0.0 0.00 0.00 0.00 55 1013.1
20260506073123 10 237 0.0 0.0 0.00 0.00 0.00 56 1012.7
20260506072623 10 237 0.0 0.0 0.00 0.00 0.00 58 1012.7
20260506072123 10 237 0.0 0.0 0.00 0.00 0.00 61 1012.7
20260506071623 10 237 0.0 0.0 0.00 0.00 0.00 59 1012.6
20260506071123 10 237 0.0 0.0 0.00 0.00 0.00 58 1012.6
20260506070623 10 237 0.0 0.0 0.00 0.00 0.00 57 1012.5
20260506062123 10 237 0.0 0.0 0.00 0.00 0.00 59 1012.2
20260506061623 10 237 0.0 0.0 0.00 0.00 0.00 59 1012.2
20260506061123 10 237 0.0 0.0 0.00 0.00 0.00 57 1012.1
20260506060623 10 237 0.0 0.0 0.00 0.00 0.00 58 1012.0
20260506060123 11 237 0.0 0.0 0.00 0.00 0.00 60 1011.9
20260506051123 12 237 0.0 3.2 0.00 0.00 0.00 56 1011.3
20260506050623 12 237 0.0 0.0 0.00 0.00 0.00 53 1011.3
20260506050123 12 237 0.0 0.0 0.00 0.00 0.00 49 1011.2
20260506045123 12 237 0.0 1.6 0.00 0.00 0.00 51 1011.2
20260506044623 12 238 0.0 0.0 0.00 0.00 0.00 53 1011.2
20260506044123 12 238 0.0 3.2 0.00 0.00 0.00 54 1011.1
20260506043623 13 238 0.0 3.2 0.00 0.00 0.00 54 1011.0
20260506043123 13 238 1.6 4.8 0.00 0.00 0.00 55 1010.9
20260506042623 13 237 0.0 3.2 0.00 0.00 0.00 54 1010.8
20260506042122 13 237 0.0 3.2 0.00 0.00 0.00 50 1010.7
20260506041623 13 237 0.0 4.8 0.00 0.00 0.00 51 1010.7
20260506041123 14 237 0.0 0.0 0.00 0.00 0.00 50 1010.6
20260506040623 14 237 0.0 0.0 0.00 0.00 0.00 49 1010.5
20260506040123 14 237 0.0 0.0 0.00 0.00 0.00 50 1010.5
20260506035623 15 237 0.0 0.0 0.00 0.00 0.00 52 1010.4
20260506035123 15 237 0.0 0.0 0.00 0.00 0.00 52 1010.3
20260506034623 15 237 0.0 4.8 0.00 0.00 0.00 48 1010.2
20260506034124 15 238 1.6 4.8 0.00 0.00 0.00 46 1010.0
20260506033623 15 238 1.6 6.4 0.00 0.00 0.00 46 1010.0
20260506033123 16 240 1.6 4.8 0.00 0.00 0.00 45 1010.0
20260506032623 16 242 0.0 0.0 0.00 0.00 0.00 45 1009.8
20260506032123 16 242 0.0 0.0 0.00 0.00 0.00 48 1009.7
20260506031623 17 242 0.0 0.0 0.00 0.00 0.00 46 1009.7
20260506031123 18 242 0.0 0.0 0.00 0.00 0.00 43 1009.7
20260506030623 18 242 0.0 0.0 0.00 0.00 0.00 42 1009.6
20260506030123 19 242 0.0 0.0 0.00 0.00 0.00 34 1009.5
20260506025623 20 242 0.0 0.0 0.00 0.00 0.00 34 1009.5
20260506025123 20 242 0.0 0.0 0.00 0.00 0.00 33 1009.5
20260506024623 20 242 0.0 0.0 0.00 0.00 0.00 33 1009.5
20260506024123 20 242 0.0 0.0 0.00 0.00 0.00 32 1009.4
20260506023623 21 242 0.0 0.0 0.00 0.00 0.00 33 1009.4
20260506023123 21 242 0.0 0.0 0.00 0.00 0.00 34 1009.3
20260506022623 21 242 0.0 0.0 0.00 0.00 0.00 35 1009.3
20260506022123 21 242 0.0 0.0 0.00 0.00 0.00 34 1009.3
20260506021623 21 242 0.0 0.0 0.00 0.00 0.00 32 1009.3
20260506021123 21 242 0.0 0.0 0.00 0.00 0.00 32 1009.2
20260506020623 22 242 0.0 0.0 0.00 0.00 0.00 30 1009.2
20260506020123 22 242 0.0 0.0 0.00 0.00 0.00 30 1009.2
20260506015624 22 242 0.0 0.0 0.00 0.00 0.00 31 1009.3
20260506015123 22 242 0.0 0.0 0.00 0.00 0.00 30 1009.3
20260506014623 22 242 0.0 0.0 0.00 0.00 0.00 30 1009.2
20260506014123 23 242 1.6 4.8 0.00 0.00 0.00 29 1009.3
20260506013623 23 242 1.6 4.8 0.00 0.00 0.00 28 1009.2
20260506013123 23 242 0.0 3.2 0.00 0.00 0.00 28 1009.3
20260506012623 23 242 0.0 3.2 0.00 0.00 0.00 26 1009.3
20260506012123 23 242 0.0 3.2 0.00 0.00 0.00 25 1009.3
20260506011624 23 242 0.0 1.6 0.00 0.00 0.00 25 1009.3
20260506011123 23 242 1.6 4.8 0.00 0.00 0.00 26 1009.3
20260506010623 23 251 0.0 3.2 0.00 0.00 0.00 31 1009.4
20260506010124 23 256 0.0 4.8 0.00 0.00 0.00 28 1009.3
20260506005623 23 249 3.2 6.4 0.00 0.00 0.00 25 1009.5
20260506005122 23 247 0.0 1.6 0.00 0.00 0.00 28 1009.3
20260506004623 23 247 1.6 3.2 0.00 0.00 0.00 29 1009.5
20260506004123 23 243 3.2 6.4 0.00 0.00 0.00 26 1009.5
20260506003623 23 241 0.0 4.8 0.00 0.00 0.00 32 1009.5
20260506003123 23 241 0.0 4.8 0.00 0.00 0.00 31 1009.6
20260506002623 23 241 1.6 4.8 0.00 0.00 0.00 28 1009.7
20260506002123 23 240 1.6 6.4 0.00 0.00 0.00 27 1009.7
20260506001623 23 238 3.2 6.4 0.00 0.00 0.00 30 1009.8
20260506001125 23 236 1.6 6.4 0.00 0.00 0.00 28 1009.9
20260506000623 23 234 1.6 6.4 0.00 0.00 0.00 25 1010.0
20260506000123 23 240 1.6 4.8 0.00 0.00 0.00 29 1009.9
20260505235623 23 249 0.0 4.8 0.00 0.00 0.00 31 1010.1
20260505235123 23 258 3.2 8.0 0.00 0.00 0.00 28 1010.1
20260505234623 23 97 1.6 4.8 0.00 0.00 0.00 29 1010.2
20260505234123 23 178 1.6 4.8 0.00 0.00 0.00 31 1010.2
20260505233623 23 106 3.2 11.3 0.00 0.00 0.00 26 1010.3
20260505233123 23 271 3.2 9.7 0.00 0.00 0.00 29 1010.4
20260505232622 23 303 1.6 8.0 0.00 0.00 0.00 30 1010.7
20260505232122 23 286 1.6 8.0 0.00 0.00 0.00 29 1010.5
20260505231623 22 270 3.2 9.7 0.00 0.00 0.00 29 1010.6
20260505231122 22 46 1.6 3.2 0.00 0.00 0.00 31 1010.7
20260505230623 22 54 3.2 6.4 0.00 0.00 0.00 33 1010.8
20260505230122 22 45 3.2 12.9 0.00 0.00 0.00 32 1010.8
20260505225622 22 45 1.6 6.4 0.00 0.00 0.00 30 1010.9
20260505225123 22 38 3.2 6.4 0.00 0.00 0.00 27 1010.9
20260505224622 22 40 3.2 11.3 0.00 0.00 0.00 35 1010.9
20260505224122 22 2 1.6 8.0 0.00 0.00 0.00 29 1010.9
20260505223622 21 58 8.0 16.1 0.00 0.00 0.00 33 1011.0
20260505223122 22 56 6.4 17.7 0.00 0.00 0.00 34 1011.1
20260505222622 22 35 4.8 16.1 0.00 0.00 0.00 34 1011.1
20260505222123 22 45 4.8 11.3 0.00 0.00 0.00 33 1011.1
20260505221622 22 58 4.8 12.9 0.00 0.00 0.00 30 1011.2
20260505221123 22 39 3.2 9.7 0.00 0.00 0.00 30 1011.3
20260505220622 21 59 4.8 11.3 0.00 0.00 0.00 38 1011.3
20260505220122 21 49 4.8 12.9 0.00 0.00 0.00 32 1011.4
20260505215622 21 55 3.2 6.4 0.00 0.00 0.00 36 1011.4